Hourly Data Report for October 12, 2019

All times are specified in Local Standard Time (LST). Add 1 hour to adjust for Daylight Saving Time where and when it is observed.

SEPT-ILES
QUEBEC
Current Station Operator: ECCC - MSC

50°13'00.000" N
66°15'00.000" W
52.60 m
7047914
71279
XZV

Download Data

Hourly Data (October 2019)
Hourly Data Report for October 12, 2019
TIME Temp Definition
°C
Dew Point Definition
°C
Rel Hum Definition
%
Wind Dir Definition
10's deg

Wind Spd Definition
km/h
Visibility Definition
km
Stn Press Definition
kPa
Hmdx Definition


Wind Chill Definition


Weather Definition


00:00 5.8 1.0 71 3 7   102.33     LegendNANA
01:00 5.6 0.7 71 3 11   102.26     LegendNANA
02:00 5.5 0.5 70 4 10   102.23     LegendNANA
03:00 5.5 0.6 71 4 14   102.17     LegendNANA
04:00 4.7 0.6 75 3 11   102.15     LegendNANA
05:00 4.7 0.4 74 3 10   102.09     LegendNANA
06:00 4.2 0.5 77 2 8   102.07     LegendNANA
07:00 5.1 0.7 73 3 8   102.05     LegendNANA
08:00 8.5 2.0 64 5 9   102.03     LegendNANA
09:00 11.0 2.6 56 9 14   102.01     LegendNANA
10:00 12.0 2.9 54 9 12   101.92     LegendNANA
11:00 12.3 3.1 53 9 12   101.81     LegendNANA
12:00 12.3 2.4 51 8 14   101.72     LegendNANA
13:00 12.7 2.9 51 10 11   101.62     LegendNANA
14:00 12.6 2.1 49 9 11   101.52     LegendNANA
15:00 12.0 1.9 50 9 9   101.41     LegendNANA
16:00 11.0 1.2 51 7 12   101.34     LegendNANA
17:00 9.6 1.2 56 7 9   101.31     LegendNANA
18:00 9.1 2.5 63 9 8   101.24     LegendNANA
19:00 8.8 3.0 67 7 6   101.18     LegendNANA
20:00 8.4 3.5 71 2 8   101.12     LegendNANA
21:00 8.4 3.2 69 4 7   101.03     LegendNANA
22:00 8.3 2.1 65 3 4   100.93     LegendNANA
23:00 8.2 1.3 62 8 4   100.86     LegendNANA

Notes on Data Quality.

Legend

  • E = Estimated
  • M = Missing
  • NA = Not Available
Date modified: